SAT105 LPPD-LPAZ

Flight info

Callsign SAT105
Flight time 0h 19m
Altitude 11000
Route VMG
Aircraft DH8D/M-SDE2E3FGRY/H

Departure

Time 2026-05-07 16:28
Airport João Paulo II Airport (LPPD)

Arrival

Time 2026-05-07 16:47
Airport Santa Maria Airport (LPAZ)
Time Latitude Longitude Altitude Speed Heading
2026-05-07 16:10 37.74783 -25.70776 276 ft 0 kts 21°
2026-05-07 16:21 37.74781 -25.70777 276 ft 2 kts 21°
2026-05-07 16:21 37.74767 -25.70784 275 ft 2 kts 22°
2026-05-07 16:21 37.74753 -25.70791 275 ft 2 kts 22°
2026-05-07 16:21 37.74739 -25.70798 274 ft 2 kts 23°
2026-05-07 16:22 37.74726 -25.70808 274 ft 2 kts 47°
2026-05-07 16:22 37.74718 -25.70824 274 ft 2 kts 69°
2026-05-07 16:22 37.74715 -25.70843 274 ft 2 kts 91°
2026-05-07 16:22 37.74717 -25.70860 274 ft 0 kts 111°
2026-05-07 16:23 37.74718 -25.70863 274 ft 0 kts 112°
2026-05-07 16:24 37.74706 -25.70822 274 ft 17 kts 111°
2026-05-07 16:24 37.74648 -25.70639 269 ft 24 kts 111°
2026-05-07 16:25 37.74600 -25.70487 265 ft 5 kts 125°
2026-05-07 16:25 37.74518 -25.70391 260 ft 27 kts 143°
2026-05-07 16:25 37.74348 -25.70213 247 ft 33 kts 131°
2026-05-07 16:25 37.74255 -25.69950 236 ft 33 kts 111°
2026-05-07 16:26 37.74155 -25.69632 219 ft 42 kts 111°
2026-05-07 16:26 37.74033 -25.69249 197 ft 48 kts 111°
2026-05-07 16:26 37.73926 -25.68908 179 ft 33 kts 112°
2026-05-07 16:26 37.73867 -25.68717 165 ft 35 kts 111°
2026-05-07 16:27 37.73803 -25.68533 151 ft 10 kts 321°
2026-05-07 16:27 37.73854 -25.68675 162 ft 46 kts 292°
2026-05-07 16:27 37.74071 -25.69365 203 ft 117 kts 291°
2026-05-07 16:27 37.74391 -25.70398 545 ft 132 kts 293°
2026-05-07 16:28 37.74734 -25.71542 1001 ft 151 kts 287°
2026-05-07 16:28 37.74596 -25.72873 1521 ft 169 kts 244°
2026-05-07 16:28 37.73508 -25.73765 1708 ft 214 kts 197°
2026-05-07 16:28 37.71954 -25.73477 1927 ft 244 kts 161°
2026-05-07 16:29 37.70338 -25.72526 2090 ft 267 kts 156°
2026-05-07 16:29 37.68626 -25.71497 2499 ft 274 kts 157°
2026-05-07 16:29 37.66880 -25.70478 2921 ft 280 kts 158°
2026-05-07 16:29 37.65093 -25.69461 3396 ft 284 kts 158°
2026-05-07 16:30 37.63300 -25.68462 3955 ft 284 kts 159°
2026-05-07 16:30 37.61472 -25.67459 4479 ft 285 kts 159°
2026-05-07 16:30 37.59623 -25.66456 5012 ft 288 kts 159°
2026-05-07 16:30 37.57787 -25.65469 5555 ft 290 kts 159°
2026-05-07 16:31 37.55929 -25.64477 6096 ft 292 kts 159°
2026-05-07 16:31 37.54048 -25.63475 6425 ft 296 kts 160°
2026-05-07 16:31 37.52144 -25.62467 6775 ft 297 kts 160°
2026-05-07 16:31 37.50252 -25.61463 6915 ft 294 kts 160°
2026-05-07 16:32 37.48354 -25.60455 6970 ft 294 kts 160°
2026-05-07 16:32 37.46459 -25.59456 6984 ft 294 kts 160°
2026-05-07 16:32 37.44570 -25.58461 6989 ft 295 kts 160°
2026-05-07 16:32 37.42664 -25.57461 6988 ft 296 kts 160°
2026-05-07 16:33 37.40745 -25.56454 6986 ft 296 kts 160°
2026-05-07 16:33 37.38840 -25.55456 6978 ft 297 kts 160°
2026-05-07 16:33 37.36934 -25.54459 6978 ft 297 kts 160°
2026-05-07 16:33 37.34985 -25.53440 6976 ft 297 kts 160°
2026-05-07 16:34 37.33075 -25.52442 6976 ft 298 kts 160°
2026-05-07 16:34 37.31147 -25.51435 6978 ft 298 kts 160°
2026-05-07 16:34 37.29246 -25.50444 6976 ft 298 kts 160°
2026-05-07 16:34 37.27320 -25.49440 6978 ft 298 kts 160°
2026-05-07 16:35 37.25394 -25.48437 6979 ft 298 kts 160°
2026-05-07 16:35 37.23461 -25.47431 6981 ft 297 kts 160°
2026-05-07 16:35 37.21551 -25.46437 6967 ft 298 kts 160°
2026-05-07 16:35 37.19602 -25.45549 6956 ft 295 kts 170°
2026-05-07 16:36 37.17587 -25.44872 6959 ft 297 kts 162°
2026-05-07 16:36 37.15708 -25.43811 6962 ft 298 kts 158°
2026-05-07 16:36 37.13805 -25.42720 6964 ft 298 kts 158°
2026-05-07 16:36 37.11893 -25.41648 6962 ft 298 kts 159°
2026-05-07 16:37 37.09988 -25.40612 6961 ft 297 kts 160°
2026-05-07 16:37 37.08089 -25.39586 6968 ft 297 kts 159°
2026-05-07 16:37 37.06180 -25.38561 6966 ft 297 kts 160°
2026-05-07 16:37 37.04256 -25.37538 6966 ft 297 kts 160°
2026-05-07 16:38 37.02330 -25.36522 6955 ft 297 kts 160°
2026-05-07 16:38 37.00422 -25.35522 6977 ft 297 kts 160°
2026-05-07 16:38 36.98500 -25.34518 6969 ft 297 kts 161°
2026-05-07 16:38 36.96585 -25.33521 6961 ft 297 kts 161°
2026-05-07 16:39 36.94695 -25.32537 6965 ft 286 kts 161°
2026-05-07 16:39 36.92923 -25.31604 6963 ft 269 kts 161°
2026-05-07 16:39 36.91201 -25.30711 6976 ft 266 kts 161°
2026-05-07 16:39 36.89484 -25.29826 6981 ft 265 kts 161°
2026-05-07 16:40 36.87779 -25.28949 6941 ft 268 kts 161°
2026-05-07 16:40 36.86017 -25.28046 6689 ft 272 kts 161°
2026-05-07 16:40 36.84296 -25.27151 6378 ft 264 kts 161°
2026-05-07 16:40 36.82620 -25.26279 6056 ft 255 kts 161°
2026-05-07 16:41 36.81003 -25.25440 5736 ft 246 kts 161°
2026-05-07 16:41 36.79457 -25.24598 5342 ft 243 kts 154°
2026-05-07 16:41 36.78319 -25.23099 4946 ft 238 kts 109°
2026-05-07 16:41 36.78136 -25.21065 4694 ft 235 kts 79°
2026-05-07 16:42 36.78338 -25.19018 4395 ft 241 kts 76°
2026-05-07 16:42 36.78585 -25.16949 4052 ft 240 kts 73°
2026-05-07 16:42 36.79242 -25.15107 3446 ft 228 kts 39°
2026-05-07 16:42 36.80509 -25.14345 3221 ft 192 kts 359°
2026-05-07 16:43 36.81810 -25.14377 3014 ft 184 kts 350°
2026-05-07 16:43 36.83070 -25.14506 2760 ft 177 kts 348°
2026-05-07 16:43 36.84235 -25.14658 2522 ft 159 kts 347°
2026-05-07 16:43 36.85289 -25.14807 2307 ft 141 kts 346°
2026-05-07 16:44 36.86189 -25.14942 2122 ft 125 kts 344°
2026-05-07 16:44 36.87081 -25.15083 1983 ft 131 kts 345°
2026-05-07 16:44 36.88000 -25.15231 1843 ft 136 kts 345°
2026-05-07 16:44 36.88915 -25.15402 1598 ft 128 kts 344°
2026-05-07 16:45 36.89781 -25.15555 1425 ft 124 kts 344°
2026-05-07 16:45 36.90636 -25.15724 1248 ft 122 kts 342°
2026-05-07 16:45 36.91488 -25.15917 1064 ft 124 kts 342°
2026-05-07 16:45 36.92340 -25.16089 930 ft 126 kts 343°
2026-05-07 16:46 36.93218 -25.16265 787 ft 127 kts 344°
2026-05-07 16:46 36.94093 -25.16445 668 ft 127 kts 343°
2026-05-07 16:46 36.94967 -25.16627 517 ft 127 kts 343°
2026-05-07 16:46 36.95858 -25.16804 342 ft 131 kts 344°
2026-05-07 16:47 36.96655 -25.16967 308 ft 82 kts 352°
2026-05-07 16:47 36.97083 -25.17048 315 ft 54 kts 352°
2026-05-07 16:47 36.97329 -25.17093 319 ft 17 kts
2026-05-07 16:47 36.97364 -25.16992 324 ft 13 kts 100°
2026-05-07 16:48 36.97331 -25.16878 327 ft 20 kts 136°
2026-05-07 16:48 36.97224 -25.16768 333 ft 14 kts 119°
2026-05-07 16:48 36.97229 -25.16664 341 ft 9 kts 75°
2026-05-07 16:48 36.97270 -25.16631 343 ft 6 kts 353°
2026-05-07 16:49 36.97297 -25.16636 342 ft 0 kts 350°